Weather History for Paris / Charles De Gaulle, France

Change the Weather History Date:

Tuesday, April 1, 2014

  Actual Average Record
Temperature  
Mean Temperature 58 °F -  
Max Temperature 69 °F 58 °F 69 °F (1999)
Min Temperature 48 °F 42 °F 30 °F (2013)
Degree Days  
Heating Degree Days 6    
Growing Degree Days 8 (Base 50)    
Moisture  
Dew Point 44 °F    
Average Humidity 56    
Maximum Humidity 82    
Minimum Humidity 27    
Precipitation  
Precipitation 0.00 in - - ()
Sea Level Pressure  
Sea Level Pressure 29.85 in    
Wind  
Wind Speed 5 mph ()    
Max Wind Speed 9 mph    
Max Gust Speed -    
Visibility 10.0 miles    
Events      
Averages and records for this station are not official NWS values.
T = Trace of Precipitation, MM = Missing Value Source: Averaged Metar Reports

Daily Weather History Graph

Daily Weather History Graph

Search for Another Location

Airport:

Trip Planner

Search our weather history database for the weather conditions in past years. The results will help you decide how hot, cold, wet, or windy it might be!

Date:

Astronomy

Apr. 01, 2014 Rise Set
Actual Time 7:27 AM CEST 8:20 PM CEST
Civil Twilight 6:55 AM CEST 8:52 PM CEST
Nautical Twilight 6:17 AM CEST 9:31 PM CEST
Astronomical Twilight 5:36 AM CEST 10:12 PM CEST
Moon 8:11 AM CEST (4/1) 10:38 PM CEST (4/1)
Length of Visible Light 13h 57m
Length of Day
12h 52m
Waxing Crescent, 3% of the Moon is Illuminated
Apr 1
Waxing Crescent
Apr 7
First Quarter
Apr 15
Full
Apr 22
Last Quarter
Apr 29
New

Hourly Weather History & Observations

Time (CEST) Temp. Dew Point Humidity Pressure Visibility Wind Dir Wind Speed Gust Speed Precip Events Conditions
12:00 AM 56 °F 45 °F 56% 29.92 in 16 mi SW 5.8 mph - -   Scattered Clouds
12:00 AM 57.2 °F 44.6 °F 63% 29.92 in - SW 4.6 mph - N/A   Clear
12:30 AM 55.4 °F 44.6 °F 67% 29.92 in - Variable 1.2 mph - N/A   Clear
1:00 AM 53 °F 44 °F 61% 29.92 in 12 mi ESE 3.5 mph - -   Scattered Clouds
1:00 AM 53.6 °F 44.6 °F 72% 29.92 in - ESE 3.5 mph - N/A   Clear
1:30 AM 53.6 °F 44.6 °F 72% 29.92 in - SE 3.5 mph - N/A   Clear
2:00 AM 53 °F 44 °F 62% 29.92 in 12 mi SSE 4.6 mph - -   Scattered Clouds
2:00 AM 53.6 °F 44.6 °F 72% 29.89 in - SSE 4.6 mph - N/A   Clear
2:30 AM 53.6 °F 44.6 °F 72% 29.89 in - SSE 2.3 mph - N/A   Clear
3:00 AM 52 °F 44 °F 64% 29.91 in 12 mi SSE 4.6 mph - -   Mostly Cloudy
3:00 AM 51.8 °F 42.8 °F 71% 29.89 in - SSE 4.6 mph - N/A   Clear
3:30 AM 51.8 °F 44.6 °F 76% 29.89 in - SE 3.5 mph - N/A   Clear
4:00 AM 53 °F 45 °F 65% 29.90 in 9 mi SSE 4.6 mph - -   Mostly Cloudy
4:00 AM 51.8 °F 44.6 °F 76% 29.89 in - SE 4.6 mph - N/A   Clear
4:30 AM 51.8 °F 44.6 °F 76% 29.89 in - SSE 3.5 mph - N/A   Clear
5:00 AM 52 °F 44 °F 67% 29.91 in 9 mi SSE 3.5 mph - -   Mostly Cloudy
5:00 AM 51.8 °F 44.6 °F 76% 29.89 in - SSE 3.5 mph - N/A   Clear
5:30 AM 51.8 °F 44.6 °F 76% 29.89 in - SE 5.8 mph - N/A   Clear
6:00 AM 51 °F 43 °F 67% 29.90 in 6 mi SE 3.5 mph - -   Mostly Cloudy
6:00 AM 51.8 °F 42.8 °F 71% 29.89 in 5.6 mi SE 3.5 mph - N/A   Unknown
6:30 AM 50.0 °F 42.8 °F 76% 29.89 in 3.1 mi SE 3.5 mph - N/A   Unknown
7:00 AM 49 °F 42 °F 70% 29.90 in 3 mi ESE 3.5 mph - -   Mist
7:00 AM 50.0 °F 42.8 °F 76% 29.89 in 2.8 mi ESE 3.5 mph - N/A   Haze
7:30 AM 48.2 °F 42.8 °F 82% 29.89 in 2.8 mi SE 4.6 mph - N/A   Haze
8:00 AM 50 °F 43 °F 70% 29.90 in 3 mi SE 4.6 mph - -   Scattered Clouds
8:00 AM 50.0 °F 42.8 °F 76% 29.89 in 3.1 mi SE 4.6 mph - N/A   Unknown
8:30 AM 51.8 °F 44.6 °F 76% 29.89 in 3.1 mi SE 4.6 mph - N/A   Unknown
9:00 AM 53 °F 44 °F 64% 29.90 in 4 mi SE 2.3 mph - -   Scattered Clouds
9:00 AM 53.6 °F 44.6 °F 72% 29.89 in 3.7 mi SE 3.5 mph - N/A   Unknown
9:30 AM 55.4 °F 44.6 °F 67% 29.89 in - Variable 3.5 mph - N/A   Clear
10:00 AM 56 °F 45 °F 56% 29.90 in 7 mi SSE 2.3 mph - -   Scattered Clouds
10:00 AM 57.2 °F 44.6 °F 63% 29.89 in - Variable 2.3 mph - N/A   Clear
10:30 AM 59.0 °F 46.4 °F 63% 29.89 in - SSE 4.6 mph - N/A   Clear
11:00 AM 59 °F 47 °F 53% 29.90 in 9 mi SSE 4.6 mph - -   Scattered Clouds
11:00 AM 59.0 °F 46.4 °F 63% 29.89 in - SSE 4.6 mph - N/A   Clear
11:30 AM 60.8 °F 46.4 °F 59% 29.89 in - SSE 4.6 mph - N/A   Clear
12:00 PM 64 °F 47 °F 43% 29.89 in 9 mi SE 3.5 mph - -   Clear
12:00 PM 64.4 °F 46.4 °F 52% 29.89 in - SE 4.6 mph - N/A   Clear
12:30 PM 64.4 °F 46.4 °F 52% 29.89 in - ESE 4.6 mph - N/A   Clear
1:00 PM 65 °F 46 °F 39% 29.87 in 11 mi ESE 3.5 mph - -   Scattered Clouds
1:00 PM 64.4 °F 46.4 °F 52% 29.86 in - Variable 3.5 mph - N/A   Clear
1:30 PM 66.2 °F 46.4 °F 49% 29.86 in - ESE 5.8 mph - N/A   Clear
2:00 PM 68 °F 46 °F 35% 29.85 in 12 mi ESE 4.6 mph - -   Scattered Clouds
2:00 PM 68.0 °F 46.4 °F 46% 29.86 in - Variable 4.6 mph - N/A   Clear
2:30 PM 68.0 °F 46.4 °F 46% 29.83 in - East 9.2 mph - N/A   Clear
3:00 PM 67 °F 43 °F 31% 29.83 in 16 mi East 8.1 mph - -   Scattered Clouds
3:00 PM 68.0 °F 44.6 °F 43% 29.83 in - East 6.9 mph - N/A   Clear
3:30 PM 68.0 °F 44.6 °F 43% 29.83 in - East 8.1 mph - N/A   Clear
4:00 PM 69 °F 45 °F 30% 29.81 in 16 mi East 8.1 mph - -   Scattered Clouds
4:00 PM 69.8 °F 44.6 °F 40% 29.80 in - East 8.1 mph - N/A   Clear
4:30 PM 69.8 °F 46.4 °F 43% 29.80 in - ESE 9.2 mph - N/A   Clear
5:00 PM 69 °F 44 °F 29% 29.80 in 16 mi ESE 9.2 mph - -   Scattered Clouds
5:00 PM 68.0 °F 44.6 °F 43% 29.80 in - ESE 9.2 mph - N/A   Clear
5:30 PM 68.0 °F 42.8 °F 40% 29.80 in - ESE 9.2 mph - N/A   Clear
6:00 PM 68 °F 42 °F 27% 29.79 in 16 mi East 9.2 mph - -   Scattered Clouds
6:00 PM 68.0 °F 41.0 °F 37% 29.77 in - East 9.2 mph - N/A   Clear
6:30 PM 68.0 °F 42.8 °F 40% 29.77 in - East 6.9 mph - N/A   Clear
7:00 PM 67 °F 43 °F 30% 29.78 in 19 mi East 9.2 mph - -   Scattered Clouds
7:00 PM 68.0 °F 42.8 °F 40% 29.77 in - ESE 8.1 mph - N/A   Clear
7:30 PM 66.2 °F 42.8 °F 43% 29.77 in - ESE 9.2 mph - N/A   Clear
8:00 PM 65 °F 43 °F 33% 29.78 in 19 mi SE 9.2 mph - -   Scattered Clouds
8:00 PM 66.2 °F 42.8 °F 43% 29.77 in - SE 9.2 mph - N/A   Clear
8:30 PM 64.4 °F 42.8 °F 45% 29.77 in - East 8.1 mph - N/A   Clear
9:00 PM 64 °F 43 °F 35% 29.79 in 19 mi SE 4.6 mph - -   Clear
9:00 PM 64.4 °F 42.8 °F 45% 29.77 in - SE 5.8 mph - N/A   Clear
9:30 PM 62.6 °F 42.8 °F 48% 29.80 in - SE 4.6 mph - N/A   Clear
10:00 PM 61 °F 44 °F 42% 29.80 in 16 mi SE 4.6 mph - -   Clear
10:00 PM 60.8 °F 42.8 °F 52% 29.80 in - SE 4.6 mph - N/A   Clear
10:30 PM 60.8 °F 42.8 °F 52% 29.77 in - ESE 4.6 mph - N/A   Clear
11:00 PM 59 °F 44 °F 46% 29.78 in 16 mi East 6.9 mph - -   Clear
11:00 PM 59.0 °F 44.6 °F 59% 29.77 in - East 6.9 mph - N/A   Clear
11:30 PM 59.0 °F 44.6 °F 59% 29.77 in - East 6.9 mph - N/A   Clear